This demonstration page uses our WeatherBlox Daily Observations layout. Learn more.

Hourly Observations for December 10, 2015

Temp ( °F °C ) Dew Point ( °F °C ) Humidity (%) Winds ( mph kmh ) Pressure ( in mb ) Visibility ( mi km ) Precip ( " mm )
12:15 am 00:15 Clear 49 9.3 36 2 61 61 WSW 8 13 29.56 1001 10 16.0934 0 0
12:35 am 00:35 Clear 50 10.1 35 1.5 55 55 W 7 11 29.56 1001 10 16.0934 0 0
12:55 am 00:55 Clear 51 10.6 34 1.1 52 52 WSW 7 11 29.56 1001 10 16.0934 0 0
1:15 am 01:15 Clear 52 11 33 0.8 50 50 WSW 8 13 29.56 1001 10 16.0934 0 0
1:35 am 01:35 Clear 53 11.8 32 0 45 45 W 10 17 29.5 999 10 16.0934 0 0
1:55 am 01:55 Clear 53 11.7 32 0 45 45 W 8 13 29.53 1000 10 16.0934 0 0
2:15 am 02:15 Clear 50 10.2 33 0.3 51 51 WSW 7 11 29.56 1001 10 16.0934 0 0
2:35 am 02:35 Clear 49 9.4 33 0.7 55 55 WSW 6 9 29.53 1000 10 16.0934 0 0
2:55 am 02:55 Clear 50 10.1 33 0.3 51 51 WSW 12 19 29.56 1001 10 16.0934 0 0
3:15 am 03:15 Clear 58 14.6 28 -2 32 32 W 15 24 29.53 1000 10 16.0934 0 0
3:35 am 03:35 Clear 57 13.8 29 -1.6 35 35 W 13 20 29.56 1001 10 16.0934 0 0
3:55 am 03:55 Clear 56 13.1 29 -1.5 37 37 W 10 17 29.56 1001 10 16.0934 0 0
4:10 am 04:10 Clear 62 16.5 28 -2.4 28 28 WNW 24 39 29.53 1000 10 16.0934 0 0
4:35 am 04:35 Clear 61 15.9 28 -2.1 29 29 WNW 14 22 29.56 1001 10 16.0934 0 0
4:55 am 04:55 Clear 60 15.7 28 -2 30 30 WNW 17 28 29.56 1001 10 16.0934 0 0
5:15 am 05:15 Clear 58 14.5 29 -1.5 33 33 WNW 21 33 29.59 1002 10 16.0934 0 0
5:35 am 05:35 Clear 57 14 30 -1.3 35 35 WNW 22 35 29.59 1002 10 16.0934 0 0
5:55 am 05:55 Clear 55 12.7 31 -0.8 40 40 NW 23 37 29.62 1003 10 16.0934 0 0
6:15 am 06:15 Clear 53 11.5 31 -0.6 43 43 NW 20 31 29.68 1005 10 16.0934 0 0
6:35 am 06:35 Clear 51 10.5 31 -0.5 47 47 NNW 14 22 29.68 1005 10 16.0934 0 0
6:55 am 06:55 Clear 48 8.7 31 -0.3 54 54 NW 12 19 29.74 1007 10 16.0934 0 0
7:15 am 07:15 Clear 46 7.7 31 -0.5 56 56 NW 8 13 29.74 1007 10 16.0934 0 0
7:35 am 07:35 Clear 43 6.3 32 -0.1 64 64 NW 10 17 29.8 1009 10 16.0934 0 0
7:55 am 07:55 Sunny 44 6.4 32 -0.1 63 63 WNW 9 15 29.83 1010 10 16.0934 0 0
8:15 am 08:15 Sunny 42 5.8 31 -0.5 64 64 WNW 10 17 29.83 1010 10 16.0934 0 0
8:35 am 08:35 Sunny 43 6 32 -0.2 65 65 WNW 9 15 29.83 1010 10 16.0934 0 0
8:55 am 08:55 Sunny 44 6.5 32 0 64 64 W 9 15 29.83 1010 10 16.0934 0 0
9:15 am 09:15 Sunny 45 7.4 32 0 60 60 W 10 17 29.83 1010 10 16.0934 0 0
9:35 am 09:35 Sunny 46 8 32 0.1 58 58 WNW 10 17 29.8 1009 10 16.0934 0 0
9:55 am 09:55 Sunny 48 8.8 32 0 54 54 WNW 10 17 29.8 1009 10 16.0934 0 0
10:15 am 10:15 Sunny 50 10 31 -0.6 48 48 NW 13 20 29.8 1009 10 16.0934 0 0
10:35 am 10:35 Sunny 52 11.1 30 -1 43 43 NW 15 24 29.77 1008 10 16.0934 0 0
10:55 am 10:55 Sunny 53 11.7 29 -1.7 40 40 NW 13 20 29.77 1008 10 16.0934 0 0
11:15 am 11:15 Sunny 55 12.7 28 -2.2 36 36 NW 16 26 29.77 1008 10 16.0934 0 0
11:35 am 11:35 Sunny 55 13 27 -2.8 34 34 NW 15 24 29.77 1008 10 16.0934 0 0
11:55 am 11:55 Sunny 56 13.3 27 -2.8 33 33 NW 10 17 29.77 1008 10 16.0934 0 0
12:15 pm 12:15 Sunny 56 13.6 25 -3.7 30 30 NW 18 30 29.71 1006 10 16.0934 0 0
12:35 pm 12:35 Sunny 57 14 25 -4 29 29 NW 16 26 29.71 1006 10 16.0934 0 0
12:55 pm 12:55 Sunny 57 13.8 23 -4.8 27 27 NW 16 26 29.71 1006 10 16.0934 0 0
1:15 pm 13:15 Sunny 57 14 22 -5.6 25 25 WNW 13 20 29.68 1005 10 16.0934 0 0
1:35 pm 13:35 Sunny 57 13.8 23 -5.2 27 27 NW 6 9 29.68 1005 10 16.0934 0 0
1:55 pm 13:55 Sunny 57 14.1 22 -5.4 26 26 WNW 9 15 29.68 1005 10 16.0934 0 0
2:15 pm 14:15 Sunny 58 14.5 21 -5.9 24 24 WNW 12 19 29.68 1005 10 16.0934 0 0
2:35 pm 14:35 Sunny 58 14.5 21 -6.3 23 23 W 14 22 29.68 1005 10 16.0934 0 0
2:55 pm 14:55 Sunny 57 14 20 -6.5 24 24 WNW 10 17 29.68 1005 10 16.0934 0 0
3:15 pm 15:15 Sunny 57 14 19 -7.2 22 22 WNW 9 15 29.65 1004 10 16.0934 0 0
3:35 pm 15:35 Sunny 56 13.6 20 -6.6 24 24 WNW 7 11 29.65 1004 10 16.0934 0 0
3:55 pm 15:55 Sunny 55 12.6 21 -6.1 27 27 W 3 6 29.65 1004 10 16.0934 0 0
4:15 pm 16:15 Sunny 54 12.2 21 -5.9 28 28 Calm 29.68 1005 10 16.0934 0 0
4:35 pm 16:35 Sunny 54 12 21 -5.9 28 28 Calm 29.68 1005 10 16.0934 0 0
4:55 pm 16:55 Sunny 52 11 23 -5.2 32 32 SSW 3 6 29.68 1005 7 11.26538 0 0
5:15 pm 17:15 Clear 50 10.1 23 -5.1 34 34 SW 5 7 29.71 1006 10 16.0934 0 0
5:35 pm 17:35 Clear 49 9.6 22 -5.3 35 35 SSW 5 7 29.71 1006 10 16.0934 0 0
5:55 pm 17:55 Clear 48 9 22 -5.6 35 35 SSW 6 9 29.74 1007 10 16.0934 0 0
6:15 pm 18:15 Clear 47 8.1 22 -5.5 38 38 SSW 7 11 29.71 1006 10 16.0934 0 0
6:35 pm 18:35 Clear 45 7.2 22 -5.3 41 41 SSW 7 11 29.71 1006 10 16.0934 0 0
6:55 pm 18:55 Clear 39 3.9 25 -4.1 56 56 S 6 9 29.74 1007 10 16.0934 0 0
7:15 pm 19:15 Clear 41 5.1 23 -5 48 48 S 6 9 29.71 1006 10 16.0934 0 0
7:35 pm 19:35 Clear 43 6.3 22 -5.3 44 44 S 7 11 29.68 1005 10 16.0934 0 0
7:55 pm 19:55 Clear 45 7.3 22 -5.3 41 41 S 8 13 29.68 1005 10 16.0934 0 0
8:15 pm 20:15 Clear 44 6.8 23 -5 43 43 SSW 7 11 29.68 1005 10 16.0934 0 0
8:35 pm 20:35 Clear 45 7.2 25 -4.1 45 45 S 9 15 29.68 1005 10 16.0934 0 0
8:55 pm 20:55 Clear 46 7.7 24 -4.2 43 43 S 9 15 29.68 1005 10 16.0934 0 0
9:15 pm 21:15 Clear 43 6.1 25 -3.8 49 49 S 7 11 29.65 1004 10 16.0934 0 0
9:35 pm 21:35 Clear 40 4.2 26 -3.3 59 59 SSE 7 11 29.68 1005 10 16.0934 0 0
9:55 pm 21:55 Clear 40 4.2 26 -3.5 58 58 S 9 15 29.68 1005 10 16.0934 0 0
10:15 pm 22:15 Clear 42 5.3 26 -3.1 55 55 SSE 8 13 29.65 1004 10 16.0934 0 0
10:35 pm 22:35 Clear 41 5 27 -3 57 57 SSE 8 13 29.65 1004 10 16.0934 0 0
10:55 pm 22:55 Clear 43 6.1 27 -3 52 52 SSE 7 11 29.62 1003 10 16.0934 0 0
11:15 pm 23:15 Clear 42 5.5 28 -2.5 57 57 SSE 8 13 29.59 1002 10 16.0934 0 0
11:35 pm 23:35 Clear 41 4.8 28 -2.5 60 60 SSE 7 11 29.62 1003 10 16.0934 0 0
11:55 pm 23:55 Clear 43 6.1 27 -2.6 54 54 S 12 19 29.59 1002 10 16.0934 0 0

Powered by AerisWeather